Regional Weather Roundup
Issued by NWS

Home | Current Version | Previous Version | Text Only | Print | Product List | Glossary Off
Versions: 1 2 3 4 5 6 7 8 9 10 11 12 13 14 15 16 17 18 19 20 21 22 23 24 25 26 27 28 29 30 31 32 33 34 35 36 37 38 39 40 41 42 43 44 45 46 47 48 49 50

000
ASUS45 KTFX 230419
RWRMT
MONTANA HOURLY WEATHER ROUNDUP
NATIONAL WEATHER SERVICE GREAT FALLS MT
1019 PM MDT MON SEP 22 2014

NOTE: "FAIR" INDICATES FEW OR NO CLOUDS BELOW 12000 FEET WITH NO
SIGNIFICANT WEATHER AND/OR OBSTRUCTIONS TO VISIBILITY.

* THESE STATIONS ARE NOT UNDER NWS QUALITY CONTROL. THEY DO NOT
   REPORT WEATHER SUCH AS PRECIPITATION OR FOG.

MTZ001>007-043-230500-
WEST OF THE DIVIDE
CITY           SKY/WX    TMP DP  RH WIND       PRES   REMARKS
KALISPELL      MOCLDY    55  48  77 NE5       29.91S
MISSOULA       MOCLDY    66  45  47 CALM      29.96S
BUTTE          MOCLDY    55  48  77 CALM      30.12R
MULLAN PASS    MOCLDY    57  43  60 NW6       30.12S
* ESSEX        N/A       61  46  58 SE4G10     N/A
* LINCOLN      N/A       62  37  40 N1G6       N/A
* POLSON       N/A       67  41  39 SE1        N/A
* RONAN APT    MOCLDY    66  46  49 N/A        N/A
* SEELEY LAKE  N/A       56  38  51 NE2        N/A
* THOMP F APT  PTCLDY    64  46  52 N/A        N/A
$$

MTZ008-052>055-230500-
SOUTHWEST MONTANA
CITY           SKY/WX    TMP DP  RH WIND       PRES   REMARKS
BOZEMAN        CLOUDY    57  52  83 S6        30.05S
DILLON         CLOUDY    57  50  78 E7        30.09S
W YELLOWSTONE  CLOUDY    52  48  86 SW6       30.21S
* THREE FORKS  CLOUDY    61  45  56 N/A        N/A
* BOULDER HILL N/A       60  44  56 SW9G14     N/A
* MONIDA PASS  N/A       49  49 100 SE8        N/A
* RAYNOLDS PAS N/A       51  32  48 SE12       N/A
* WHITEHALL    N/A       60  48  65 NE3G8      N/A
* WISE RIVER   N/A       58  46  65 W10        N/A
$$

MTZ009>010-012-014-046-048-049-054-230500-
EAST SLOPES AND CENTRAL MONTANA
CITY           SKY/WX    TMP DP  RH WIND       PRES   REMARKS
CUT BANK       PTCLDY    63  45  52 W13       29.92S
GREAT FALLS    PTCLDY    68  48  49 SW12      29.92R
HELENA         MOCLDY    64  52  65 CALM      30.00R
MALMSTROM AFB  MOCLDY    63  50  63 SW12      29.92S
* CONRAD       MOCLDY    72  48  43 W5         N/A
* EAST GLACIER N/A       61  42  50 NW6        N/A
* MONARCH      N/A       61  42  50 S9         N/A
* PENDROY      N/A       65  44  47 NW9        N/A
* ROGERS PASS  N/A       57  39  51 NW3        N/A
* SAINT MARY   N/A       58  44  60 S4         N/A
* SWEET GRASS  N/A       68  41  38 W11        N/A
* WHITE SULPH  N/A       62  46  56 S10G15     N/A
$$

MTZ011-013-016-021-035-040-045-047-050-051-230500-
NORTH CENTRAL MONTANA
CITY           SKY/WX    TMP DP  RH WIND       PRES   REMARKS
HAVRE          PTCLDY    61  54  78 CALM      29.83S
LEWISTOWN      CLEAR     55  50  83 SE6       29.95R
* CHINOOK      MOCLDY    57  52  83 CALM      29.84R
* FORT BENTON  PTCLDY    70  50  49 SW8       29.87R
* CHESTER      N/A       65  41  42 NE1        N/A
* DENTON       N/A       57  47  69 S8         N/A
* JUDITH GAP   N/A       56  52  87 SE4        N/A
* LOMA         N/A       67  50  55 S1         N/A
$$

MTZ017>020-022>027-061-062-230500-
NORTHEAST MONTANA
CITY           SKY/WX    TMP DP  RH WIND       PRES   REMARKS
GLASGOW        CLEAR     61  46  58 E7        29.83S
GLENDIVE       CLEAR     61  50  67 N6        29.87F
JORDAN         CLEAR     54  48  80 CALM      29.86R
SIDNEY         CLEAR    N/A N/A N/A CALM      29.87F
WOLF POINT     CLEAR     61  48  62 NE5       29.84S
* BEAVER HILL  N/A       62  49  63 SE11       N/A
* CIRCLE       N/A       62  49  63 N/A        N/A
* LINDSAY DVD  N/A       59  49  70 NE7        N/A
* NAVAJO       N/A       63  47  56 SE6        N/A
* SACO         N/A       64  50  61 SE6        N/A
$$

MTZ028>042-056>058-230500-
SOUTHCENTRAL AND SOUTHEAST MONTANA
CITY           SKY/WX    TMP DP  RH WIND       PRES   REMARKS
BAKER          PTCLDY    57  48  72 SE3       29.89S
BILLINGS       MOCLDY    70  45  41 W12       29.94S
LIVINGSTON     PTCLDY    61  48  62 W10       30.03S
MILES CITY     CLEAR     63  48  58 NW6       29.85F
* LAUREL APT   PTCLDY    72  45  38 W8         N/A
* ROUNDUP APT  PTCLDY    64  48  56 N/A        N/A
* ALZADA       N/A       68  50  53 NE8        N/A
* HYSHAM       N/A       69  46  44 W4         N/A
* LAME DEER    N/A       69  47  46 W4         N/A
* REED POINT   N/A       66  46  49 W7         N/A
* ROSCOE HILL  N/A       63  36  37 SW8G15     N/A
$$

REGIONAL REPORTS...DAKOTAS
CITY           SKY/WX    TMP DP  RH WIND       PRES   REMARKS
WILLISTON      CLEAR     66  50  56 CALM      29.88S
DICKINSON      PTCLDY    61  48  62 SE12      29.89S
BEACH          N/A       55  50  83 SE6       29.89F
CROSBY         CLEAR     63  50  63 S12       29.89F
TIOGA          CLEAR     59  50  72 SE9       29.93F
WATFORD CITY   CLEAR     59  48  67 E5        29.87S
BISMARCK       CLEAR     63  50  63 E10       29.94F
GRAND FORKS    CLEAR     57  48  72 SE7       30.03S
FARGO          CLEAR     63  48  58 SE9       30.06S
BUFFALO SD     MOCLDY    63  52  68 SE9       29.84S
RAPID CITY     CLOUDY    63  55  75 S5        29.95S
$$

REGIONAL REPORTS...WYOMING/IDAHO/WASHINGTON
CITY           SKY/WX    TMP DP  RH WIND       PRES   REMARKS
GILLETTE       MOCLDY    66  48  52 W15G21    29.97R
SHERIDAN       MOCLDY    57  48  72 S6        29.97S
CODY           PTCLDY    64  45  50 W8        30.05F
YELLOWSTONE LA CLOUDY    46  46 100 CALM      30.29S
SALMON         MOCLDY    64  55  73 SE3       30.07R
MULLAN PASS    MOCLDY    57  43  60 NW6       30.12S
SAND POINT     MOCLDY    59  52  78 CALM      29.91R
SPOKANE        MOCLDY    66  57  73 S3        29.91F
$$

REGIONAL REPORTS...ALBERTA
CITY           SKY/WX    TMP DP  RH WIND       PRES   REMARKS
CALGARY        PTCLDY    66  43  43 SW5       29.85R
LETHBRIDGE     PTCLDY    63  46  54 SW12      29.85S
MEDICINE HAT   CLEAR     55  48  77 SW6       29.80S
EDMONTON       CLOUDY    59  46  62 S5        29.73S
WATERTON GATE  N/A       61  43  52 SW5        N/A
CARDSTON       N/A       63  45  52 S6         N/A
MILK RIVER     N/A       55  46  72 NW8        N/A
$$

REGIONAL REPORTS...SASKATCHEWAN
CITY           SKY/WX    TMP DP  RH WIND       PRES   REMARKS
SWIFT CURRENT  CLEAR     63  50  63 S15       29.81S
REGINA         N/A       61  48  62 SE13      29.85S
VAL MARIE      N/A       50  46  86 NE2        N/A
ASSINIBOIA     N/A       63  45  52 S7         N/A
CORONACH       N/A       52  45  77 SE2        N/A

$$




USA.gov is the U.S. government's official web portal to all federal, state and local government web resources and services.